Time,TemperatureF,DewpointF,PressureIn,WindDirection,WindDirectionDegrees,WindSpeedMPH,WindSpeedGustMPH,Humidity,HourlyPrecipIn,Conditions,Clouds,dailyrainin,SoftwareType,DateUTC
2013-10-20 00:05:00,67.1,12.7,29.76,WNW,295,3.0,3.0,12,0.00,,,0.00,Wunderground v.1.15,2013-10-20 07:05:00,
2013-10-20 00:15:00,66.3,12.1,29.76,NNE,13,2.0,3.0,12,0.00,,,0.00,Wunderground v.1.15,2013-10-20 07:15:00,
2013-10-20 00:20:00,66.3,12.1,29.76,NW,311,1.0,1.0,12,0.00,,,0.00,Wunderground v.1.15,2013-10-20 07:20:00,
2013-10-20 00:25:00,66.4,12.2,29.76,NW,326,1.0,2.0,12,0.00,,,0.00,Wunderground v.1.15,2013-10-20 07:25:00,
2013-10-20 00:30:00,66.1,11.9,29.76,NNW,330,2.0,3.0,12,0.00,,,0.00,Wunderground v.1.15,2013-10-20 07:30:00,
2013-10-20 00:35:00,65.6,11.5,29.76,NNW,334,3.0,3.0,12,0.00,,,0.00,Wunderground v.1.15,2013-10-20 07:35:00,
2013-10-20 00:40:00,64.9,11.0,29.76,NNW,340,4.0,7.0,12,0.00,,,0.00,Wunderground v.1.15,2013-10-20 07:40:00,
2013-10-20 00:50:00,64.9,11.0,29.76,NW,326,6.0,6.0,12,0.00,,,0.00,Wunderground v.1.15,2013-10-20 07:50:00,
2013-10-20 00:55:00,64.9,12.8,29.75,North,360,4.0,6.0,13,0.00,,,0.00,Wunderground v.1.15,2013-10-20 07:55:00,
2013-10-20 01:00:00,65.1,13.0,29.75,NW,316,3.0,3.0,13,0.00,,,0.00,Wunderground v.1.15,2013-10-20 08:00:00,
2013-10-20 01:05:00,65.0,12.9,29.76,NW,311,2.0,3.0,13,0.00,,,0.00,Wunderground v.1.15,2013-10-20 08:05:00,
2013-10-20 01:15:00,65.0,11.1,29.76,NW,304,2.0,3.0,12,0.00,,,0.00,Wunderground v.1.15,2013-10-20 08:15:00,
2013-10-20 01:20:00,64.7,10.8,29.76,WNW,297,3.0,3.0,12,0.00,,,0.00,Wunderground v.1.15,2013-10-20 08:20:00,
2013-10-20 01:25:00,64.6,10.8,29.76,NW,314,5.0,5.0,12,0.00,,,0.00,Wunderground v.1.15,2013-10-20 08:25:00,
2013-10-20 01:35:00,63.5,11.7,29.76,NNW,332,2.0,3.0,13,0.00,,,0.00,Wunderground v.1.15,2013-10-20 08:35:00,
2013-10-20 01:45:00,63.5,11.7,29.76,NW,323,3.0,4.0,13,0.00,,,0.00,Wunderground v.1.15,2013-10-20 08:45:00,
2013-10-20 01:55:00,63.2,11.5,29.76,WNW,301,3.0,3.0,13,0.00,,,0.00,Wunderground v.1.15,2013-10-20 08:55:00,
2013-10-20 02:05:00,64.6,12.6,29.75,NW,311,2.0,3.0,13,0.00,,,0.00,Wunderground v.1.15,2013-10-20 09:05:00,
2013-10-20 02:10:00,64.8,12.7,29.75,NW,314,1.0,1.0,13,0.00,,,0.00,Wunderground v.1.15,2013-10-20 09:10:00,
2013-10-20 02:15:00,64.6,12.6,29.75,NW,314,1.0,2.0,13,0.00,,,0.00,Wunderground v.1.15,2013-10-20 09:15:00,
2013-10-20 02:20:00,64.7,12.7,29.75,WNW,300,2.0,2.0,13,0.00,,,0.00,Wunderground v.1.15,2013-10-20 09:20:00,
2013-10-20 02:30:00,64.7,12.7,29.75,NW,323,2.0,3.0,13,0.00,,,0.00,Wunderground v.1.15,2013-10-20 09:30:00,
2013-10-20 02:35:00,63.9,12.0,29.75,NNW,345,3.0,4.0,13,0.00,,,0.00,Wunderground v.1.15,2013-10-20 09:35:00,
2013-10-20 02:40:00,63.7,11.9,29.75,NNW,337,4.0,4.0,13,0.00,,,0.00,Wunderground v.1.15,2013-10-20 09:40:00,
2013-10-20 02:45:00,64.1,12.2,29.75,NNW,330,4.0,4.0,13,0.00,,,0.00,Wunderground v.1.15,2013-10-20 09:45:00,
2013-10-20 02:50:00,64.6,10.8,29.75,NW,325,4.0,4.0,12,0.00,,,0.00,Wunderground v.1.15,2013-10-20 09:50:00,
2013-10-20 03:00:00,63.7,11.9,29.75,NW,321,4.0,4.0,13,0.00,,,0.00,Wunderground v.1.15,2013-10-20 10:00:00,
2013-10-20 03:05:00,63.9,12.0,29.75,NNW,329,4.0,6.0,13,0.00,,,0.00,Wunderground v.1.15,2013-10-20 10:05:00,
2013-10-20 03:10:00,64.3,12.3,29.75,NW,323,4.0,4.0,13,0.00,,,0.00,Wunderground v.1.15,2013-10-20 10:10:00,
2013-10-20 03:15:00,64.5,10.7,29.75,NW,313,3.0,4.0,12,0.00,,,0.00,Wunderground v.1.15,2013-10-20 10:15:00,
2013-10-20 03:20:00,64.5,12.5,29.75,NW,314,3.0,3.0,13,0.00,,,0.00,Wunderground v.1.15,2013-10-20 10:20:00,
2013-10-20 03:25:00,64.2,12.3,29.74,NW,323,3.0,3.0,13,0.00,,,0.00,Wunderground v.1.15,2013-10-20 10:25:00,
2013-10-20 03:35:00,63.9,12.0,29.75,SW,225,1.0,2.0,13,0.00,,,0.00,Wunderground v.1.15,2013-10-20 10:35:00,
2013-10-20 03:40:00,63.7,11.9,29.74,SW,225,0.0,1.0,13,0.00,,,0.00,Wunderground v.1.15,2013-10-20 10:40:00,
2013-10-20 03:45:00,63.2,13.1,29.74,SW,233,1.0,1.0,14,0.00,,,0.00,Wunderground v.1.15,2013-10-20 10:45:00,
2013-10-20 03:55:00,63.2,13.1,29.74,NW,321,0.0,2.0,14,0.00,,,0.00,Wunderground v.1.15,2013-10-20 10:55:00,
2013-10-20 04:00:00,63.4,13.3,29.74,NW,326,1.0,2.0,14,0.00,,,0.00,Wunderground v.1.15,2013-10-20 11:00:00,
2013-10-20 04:10:00,62.9,12.9,29.74,WNW,293,1.0,1.0,14,0.00,,,0.00,Wunderground v.1.15,2013-10-20 11:10:00,
2013-10-20 04:15:00,62.9,12.9,29.74,NNW,345,0.0,1.0,14,0.00,,,0.00,Wunderground v.1.15,2013-10-20 11:15:00,
2013-10-20 04:20:00,62.6,14.2,29.74,NW,314,1.0,1.0,15,0.00,,,0.00,Wunderground v.1.15,2013-10-20 11:20:00,
2013-10-20 04:25:00,63.2,14.7,29.74,West,280,1.0,1.0,15,0.00,,,0.00,Wunderground v.1.15,2013-10-20 11:25:00,
2013-10-20 04:30:00,63.4,14.9,29.74,NW,322,1.0,2.0,15,0.00,,,0.00,Wunderground v.1.15,2013-10-20 11:30:00,
2013-10-20 04:35:00,62.5,14.2,29.74,NW,304,1.0,2.0,15,0.00,,,0.00,Wunderground v.1.15,2013-10-20 11:35:00,
2013-10-20 04:45:00,62.8,14.4,29.74,WNW,291,0.0,1.0,15,0.00,,,0.00,Wunderground v.1.15,2013-10-20 11:45:00,
2013-10-20 04:50:00,62.7,14.3,29.74,WNW,291,0.0,0.0,15,0.00,,,0.00,Wunderground v.1.15,2013-10-20 11:50:00,
2013-10-20 04:55:00,62.8,14.4,29.74,WNW,290,0.0,0.0,15,0.00,,,0.00,Wunderground v.1.15,2013-10-20 11:55:00,
2013-10-20 05:00:00,63.2,14.7,29.74,WSW,257,0.0,0.0,15,0.00,,,0.00,Wunderground v.1.15,2013-10-20 12:00:00,
2013-10-20 05:10:00,62.6,14.2,29.74,WSW,257,0.0,0.0,15,0.00,,,0.00,Wunderground v.1.15,2013-10-20 12:10:00,
2013-10-20 05:15:00,62.4,14.1,29.74,WSW,257,0.0,0.0,15,0.00,,,0.00,Wunderground v.1.15,2013-10-20 12:15:00,
2013-10-20 05:20:00,62.2,13.9,29.74,NNW,347,0.0,1.0,15,0.00,,,0.00,Wunderground v.1.15,2013-10-20 12:20:00,
2013-10-20 05:25:00,61.5,14.8,29.74,NW,321,1.0,1.0,16,0.00,,,0.00,Wunderground v.1.15,2013-10-20 12:25:00,
2013-10-20 05:30:00,61.4,14.7,29.74,NW,320,1.0,1.0,16,0.00,,,0.00,Wunderground v.1.15,2013-10-20 12:30:00,
2013-10-20 05:35:00,61.3,14.7,29.74,WSW,249,1.0,4.0,16,0.00,,,0.00,Wunderground v.1.15,2013-10-20 12:35:00,
2013-10-20 05:45:00,60.8,14.3,29.74,West,262,2.0,2.0,16,0.00,,,0.00,Wunderground v.1.15,2013-10-20 12:45:00,
2013-10-20 05:55:00,61.0,14.4,29.74,WNW,289,1.0,1.0,16,0.00,,,0.00,Wunderground v.1.15,2013-10-20 12:55:00,
2013-10-20 06:00:00,60.8,15.6,29.74,NW,309,1.0,2.0,17,0.00,,,0.00,Wunderground v.1.15,2013-10-20 13:00:00,
2013-10-20 06:05:00,60.7,14.2,29.74,NW,311,1.0,2.0,16,0.00,,,0.00,Wunderground v.1.15,2013-10-20 13:05:00,
2013-10-20 06:10:00,60.3,13.9,29.75,NW,311,1.0,1.0,16,0.00,,,0.00,Wunderground v.1.15,2013-10-20 13:10:00,
2013-10-20 06:15:00,59.9,14.9,29.75,NW,315,0.0,1.0,17,0.00,,,0.00,Wunderground v.1.15,2013-10-20 13:15:00,
2013-10-20 06:25:00,59.8,13.4,29.75,WSW,246,1.0,1.0,16,0.00,,,0.00,Wunderground v.1.15,2013-10-20 13:25:00,
2013-10-20 06:30:00,59.3,14.4,29.75,WSW,246,0.0,0.0,17,0.00,,,0.00,Wunderground v.1.15,2013-10-20 13:30:00,
2013-10-20 06:35:00,58.8,14.0,29.75,WSW,246,0.0,0.0,17,0.00,,,0.00,Wunderground v.1.15,2013-10-20 13:35:00,
2013-10-20 06:40:00,58.8,14.0,29.75,WSW,246,0.0,0.0,17,0.00,,,0.00,Wunderground v.1.15,2013-10-20 13:40:00,
2013-10-20 06:50:00,58.8,14.0,29.75,NNW,328,0.0,0.0,17,0.00,,,0.00,Wunderground v.1.15,2013-10-20 13:50:00,
2013-10-20 06:55:00,58.9,15.4,29.75,NW,309,1.0,2.0,18,0.00,,,0.00,Wunderground v.1.15,2013-10-20 13:55:00,
2013-10-20 07:00:00,59.7,14.8,29.76,NNW,340,1.0,2.0,17,0.00,,,0.00,Wunderground v.1.15,2013-10-20 14:00:00,
2013-10-20 07:05:00,60.6,15.5,29.76,NNW,347,3.0,4.0,17,0.00,,,0.00,Wunderground v.1.15,2013-10-20 14:05:00,
2013-10-20 07:15:00,62.1,15.3,29.76,West,260,2.0,3.0,16,0.00,,,0.00,Wunderground v.1.15,2013-10-20 14:15:00,
2013-10-20 07:20:00,62.7,14.3,29.76,WSW,253,1.0,1.0,15,0.00,,,0.00,Wunderground v.1.15,2013-10-20 14:20:00,
2013-10-20 07:25:00,64.2,15.5,29.76,WSW,253,0.0,1.0,15,0.00,,,0.00,Wunderground v.1.15,2013-10-20 14:25:00,
2013-10-20 07:30:00,65.5,15.0,29.76,ENE,73,0.0,0.0,14,0.00,,,0.00,Wunderground v.1.15,2013-10-20 14:30:00,
2013-10-20 07:35:00,65.5,15.0,29.76,SE,143,0.0,0.0,14,0.00,,,0.00,Wunderground v.1.15,2013-10-20 14:35:00,
2013-10-20 07:40:00,65.3,16.4,29.76,ENE,77,1.0,1.0,15,0.00,,,0.00,Wunderground v.1.15,2013-10-20 14:40:00,
2013-10-20 07:45:00,65.6,15.1,29.77,SE,138,1.0,1.0,14,0.00,,,0.00,Wunderground v.1.15,2013-10-20 14:45:00,
2013-10-20 07:50:00,66.0,15.4,29.77,East,95,1.0,1.0,14,0.00,,,0.00,Wunderground v.1.15,2013-10-20 14:50:00,
2013-10-20 08:00:00,66.8,16.0,29.77,East,98,1.0,1.0,14,0.00,,,0.00,Wunderground v.1.15,2013-10-20 15:00:00,
2013-10-20 08:05:00,67.4,14.8,29.77,ESE,117,1.0,1.0,13,0.00,,,0.00,Wunderground v.1.15,2013-10-20 15:05:00,
2013-10-20 08:15:00,68.8,15.9,29.77,SW,214,1.0,1.0,13,0.00,,,0.00,Wunderground v.1.15,2013-10-20 15:15:00,
2013-10-20 08:20:00,68.6,13.9,29.77,WSW,245,1.0,1.0,12,0.00,,,0.00,Wunderground v.1.15,2013-10-20 15:20:00,
2013-10-20 08:25:00,68.3,13.7,29.77,South,172,1.0,2.0,12,0.00,,,0.00,Wunderground v.1.15,2013-10-20 15:25:00,
2013-10-20 08:30:00,69.4,14.5,29.77,SW,214,2.0,2.0,12,0.00,,,0.00,Wunderground v.1.15,2013-10-20 15:30:00,
2013-10-20 08:40:00,70.6,15.5,29.77,SW,214,3.0,3.0,12,0.00,,,0.00,Wunderground v.1.15,2013-10-20 15:40:00,
2013-10-20 08:45:00,70.9,13.7,29.77,SSW,203,2.0,3.0,11,0.00,,,0.00,Wunderground v.1.15,2013-10-20 15:45:00,
2013-10-20 08:50:00,71.8,14.4,29.77,SSE,167,2.0,4.0,11,0.00,,,0.00,Wunderground v.1.15,2013-10-20 15:50:00,
2013-10-20 08:55:00,72.0,14.6,29.77,South,191,3.0,4.0,11,0.00,,,0.00,Wunderground v.1.15,2013-10-20 15:55:00,
2013-10-20 09:00:00,72.2,14.7,29.77,SSE,151,3.0,4.0,11,0.00,,,0.00,Wunderground v.1.15,2013-10-20 16:00:00,
2013-10-20 09:10:00,71.9,14.5,29.77,WSW,242,4.0,4.0,11,0.00,,,0.00,Wunderground v.1.15,2013-10-20 16:10:00,
2013-10-20 09:15:00,72.0,14.6,29.77,SW,222,4.0,4.0,11,0.00,,,0.00,Wunderground v.1.15,2013-10-20 16:15:00,
2013-10-20 09:25:00,71.3,14.0,29.77,SSE,166,4.0,6.0,11,0.00,,,0.00,Wunderground v.1.15,2013-10-20 16:25:00,
2013-10-20 09:30:00,71.7,14.3,29.77,SSW,200,3.0,5.0,11,0.00,,,0.00,Wunderground v.1.15,2013-10-20 16:30:00,
2013-10-20 09:35:00,71.4,16.1,29.77,SW,231,3.0,5.0,12,0.00,,,0.00,Wunderground v.1.15,2013-10-20 16:35:00,
2013-10-20 09:45:00,71.1,15.9,29.76,SW,236,4.0,7.0,12,0.00,,,0.00,Wunderground v.1.15,2013-10-20 16:45:00,
2013-10-20 09:50:00,71.0,15.8,29.76,SSW,197,6.0,6.0,12,0.00,,,0.00,Wunderground v.1.15,2013-10-20 16:50:00,
2013-10-20 09:55:00,70.9,15.7,29.76,SW,214,5.0,6.0,12,0.00,,,0.00,Wunderground v.1.15,2013-10-20 16:55:00,
2013-10-20 10:00:00,71.5,16.2,29.76,SW,214,5.0,5.0,12,0.00,,,0.00,Wunderground v.1.15,2013-10-20 17:00:00,
2013-10-20 10:05:00,71.8,16.4,29.76,SW,217,5.0,6.0,12,0.00,,,0.00,Wunderground v.1.15,2013-10-20 17:05:00,
2013-10-20 10:10:00,72.8,17.2,29.76,South,190,5.0,5.0,12,0.00,,,0.00,Wunderground v.1.15,2013-10-20 17:10:00,
2013-10-20 10:15:00,72.8,15.2,29.76,SSW,200,5.0,5.0,11,0.00,,,0.00,Wunderground v.1.15,2013-10-20 17:15:00,
2013-10-20 10:25:00,73.4,15.6,29.76,SW,217,5.0,8.0,11,0.00,,,0.00,Wunderground v.1.15,2013-10-20 17:25:00,
2013-10-20 10:30:00,73.0,15.3,29.76,SSW,202,6.0,6.0,11,0.00,,,0.00,Wunderground v.1.15,2013-10-20 17:30:00,
2013-10-20 10:35:00,73.5,15.7,29.75,SW,231,6.0,6.0,11,0.00,,,0.00,Wunderground v.1.15,2013-10-20 17:35:00,
2013-10-20 10:45:00,73.9,16.0,29.75,South,186,7.0,9.0,11,0.00,,,0.00,Wunderground v.1.15,2013-10-20 17:45:00,
2013-10-20 10:55:00,74.6,16.6,29.75,SSE,160,5.0,7.0,11,0.00,,,0.00,Wunderground v.1.15,2013-10-20 17:55:00,
2013-10-20 11:00:00,75.0,14.7,29.75,SSE,158,5.0,6.0,10,0.00,,,0.00,Wunderground v.1.15,2013-10-20 18:00:00,
2013-10-20 11:05:00,75.9,15.4,29.75,SE,131,4.0,6.0,10,0.00,,,0.00,Wunderground v.1.15,2013-10-20 18:05:00,
2013-10-20 11:10:00,76.0,15.4,29.75,SSE,165,5.0,6.0,10,0.00,,,0.00,Wunderground v.1.15,2013-10-20 18:10:00,
2013-10-20 11:15:00,76.2,15.6,29.75,SSW,200,6.0,6.0,10,0.00,,,0.00,Wunderground v.1.15,2013-10-20 18:15:00,
2013-10-20 11:20:00,76.8,16.1,29.75,SSW,194,4.0,6.0,10,0.00,,,0.00,Wunderground v.1.15,2013-10-20 18:20:00,
2013-10-20 11:30:00,78.1,17.0,29.74,SW,219,4.0,4.0,10,0.00,,,0.00,Wunderground v.1.15,2013-10-20 18:30:00,
2013-10-20 11:35:00,77.9,14.5,29.74,SW,226,4.0,4.0,9,0.00,,,0.00,Wunderground v.1.15,2013-10-20 18:35:00,
2013-10-20 11:45:00,78.2,17.1,29.74,West,268,5.0,5.0,10,0.00,,,0.00,Wunderground v.1.15,2013-10-20 18:45:00,
2013-10-20 11:50:00,78.7,17.5,29.73,South,169,5.0,7.0,10,0.00,,,0.00,Wunderground v.1.15,2013-10-20 18:50:00,
2013-10-20 12:00:00,79.2,17.9,29.73,SW,226,6.0,6.0,10,0.00,,,0.00,Wunderground v.1.15,2013-10-20 19:00:00,
2013-10-20 12:05:00,78.9,17.7,29.73,SW,232,5.0,6.0,10,0.00,,,0.00,Wunderground v.1.15,2013-10-20 19:05:00,
2013-10-20 12:10:00,78.8,17.6,29.73,SW,236,5.0,8.0,10,0.00,,,0.00,Wunderground v.1.15,2013-10-20 19:10:00,
2013-10-20 12:15:00,78.6,17.4,29.72,SSE,165,6.0,8.0,10,0.00,,,0.00,Wunderground v.1.15,2013-10-20 19:15:00,
2013-10-20 12:20:00,78.9,17.7,29.73,WSW,254,7.0,7.0,10,0.00,,,0.00,Wunderground v.1.15,2013-10-20 19:20:00,
2013-10-20 12:25:00,78.1,17.0,29.72,West,259,6.0,11.0,10,0.00,,,0.00,Wunderground v.1.15,2013-10-20 19:25:00,
2013-10-20 12:30:00,78.2,17.1,29.72,WSW,246,6.0,8.0,10,0.00,,,0.00,Wunderground v.1.15,2013-10-20 19:30:00,
2013-10-20 12:35:00,78.0,17.0,29.72,WSW,245,7.0,9.0,10,0.00,,,0.00,Wunderground v.1.15,2013-10-20 19:35:00,
2013-10-20 12:45:00,78.4,17.3,29.71,SSW,211,7.0,11.0,10,0.00,,,0.00,Wunderground v.1.15,2013-10-20 19:45:00,
2013-10-20 12:50:00,78.6,15.0,29.71,SW,226,6.0,6.0,9,0.00,,,0.00,Wunderground v.1.15,2013-10-20 19:50:00,
2013-10-20 12:55:00,78.5,14.9,29.70,SSW,210,7.0,7.0,9,0.00,,,0.00,Wunderground v.1.15,2013-10-20 19:55:00,
2013-10-20 13:00:00,79.1,15.4,29.70,WSW,243,8.0,8.0,9,0.00,,,0.00,Wunderground v.1.15,2013-10-20 20:00:00,
2013-10-20 13:10:00,78.6,15.0,29.70,WSW,242,7.0,9.0,9,0.00,,,0.00,Wunderground v.1.15,2013-10-20 20:10:00,
2013-10-20 13:15:00,78.5,17.4,29.69,SSE,162,7.0,9.0,10,0.00,,,0.00,Wunderground v.1.15,2013-10-20 20:15:00,
2013-10-20 13:20:00,79.3,15.5,29.69,SSE,155,6.0,6.0,9,0.00,,,0.00,Wunderground v.1.15,2013-10-20 20:20:00,
2013-10-20 13:25:00,79.3,15.5,29.69,SSW,204,7.0,7.0,9,0.00,,,0.00,Wunderground v.1.15,2013-10-20 20:25:00,
2013-10-20 13:35:00,79.2,15.5,29.68,WSW,239,8.0,8.0,9,0.00,,,0.00,Wunderground v.1.15,2013-10-20 20:35:00,
2013-10-20 13:45:00,79.4,15.6,29.68,WSW,250,6.0,7.0,9,0.00,,,0.00,Wunderground v.1.15,2013-10-20 20:45:00,
2013-10-20 13:55:00,78.5,14.9,29.68,SSW,195,8.0,8.0,9,0.00,,,0.00,Wunderground v.1.15,2013-10-20 20:55:00,
2013-10-20 14:00:00,79.2,15.5,29.68,WSW,257,7.0,7.0,9,0.00,,,0.00,Wunderground v.1.15,2013-10-20 21:00:00,
2013-10-20 14:05:00,78.7,15.1,29.68,WNW,294,7.0,8.0,9,0.00,,,0.00,Wunderground v.1.15,2013-10-20 21:05:00,
2013-10-20 14:15:00,78.9,15.2,29.68,SW,235,8.0,8.0,9,0.00,,,0.00,Wunderground v.1.15,2013-10-20 21:15:00,
2013-10-20 14:20:00,79.0,15.3,29.68,WNW,301,7.0,8.0,9,0.00,,,0.00,Wunderground v.1.15,2013-10-20 21:20:00,
2013-10-20 14:25:00,78.9,15.2,29.68,NW,311,7.0,8.0,9,0.00,,,0.00,Wunderground v.1.15,2013-10-20 21:25:00,
2013-10-20 14:30:00,78.8,15.1,29.67,WSW,256,7.0,7.0,9,0.00,,,0.00,Wunderground v.1.15,2013-10-20 21:30:00,
2013-10-20 14:40:00,79.4,15.6,29.67,WSW,240,4.0,8.0,9,0.00,,,0.00,Wunderground v.1.15,2013-10-20 21:40:00,
2013-10-20 14:45:00,79.4,15.6,29.67,SSE,155,6.0,8.0,9,0.00,,,0.00,Wunderground v.1.15,2013-10-20 21:45:00,
2013-10-20 14:50:00,79.0,12.6,29.67,WSW,248,8.0,10.0,8,0.00,,,0.00,Wunderground v.1.15,2013-10-20 21:50:00,
2013-10-20 14:55:00,79.0,12.6,29.67,SW,232,9.0,10.0,8,0.00,,,0.00,Wunderground v.1.15,2013-10-20 21:55:00,
2013-10-20 15:00:00,78.6,12.3,29.67,SW,233,8.0,12.0,8,0.00,,,0.00,Wunderground v.1.15,2013-10-20 22:00:00,
2013-10-20 15:05:00,78.3,14.8,29.67,SW,217,8.0,12.0,9,0.00,,,0.00,Wunderground v.1.15,2013-10-20 22:05:00,
2013-10-20 15:10:00,79.2,15.5,29.67,WNW,282,6.0,6.0,9,0.00,,,0.00,Wunderground v.1.15,2013-10-20 22:10:00,
2013-10-20 15:15:00,79.3,12.8,29.67,WSW,238,5.0,11.0,8,0.00,,,0.00,Wunderground v.1.15,2013-10-20 22:15:00,
2013-10-20 15:20:00,78.8,12.5,29.66,SW,231,8.0,8.0,8,0.00,,,0.00,Wunderground v.1.15,2013-10-20 22:20:00,
2013-10-20 15:25:00,79.2,12.8,29.66,SW,217,7.0,8.0,8,0.00,,,0.00,Wunderground v.1.15,2013-10-20 22:25:00,
2013-10-20 15:30:00,79.9,13.3,29.66,South,172,5.0,5.0,8,0.00,,,0.00,Wunderground v.1.15,2013-10-20 22:30:00,
2013-10-20 15:35:00,80.4,13.7,29.66,SSW,198,5.0,9.0,8,0.00,,,0.00,Wunderground v.1.15,2013-10-20 22:35:00,
2013-10-20 15:45:00,80.2,13.5,29.66,South,181,4.0,5.0,8,0.00,,,0.00,Wunderground v.1.15,2013-10-20 22:45:00,
2013-10-20 15:50:00,80.1,13.4,29.66,WNW,303,3.0,3.0,8,0.00,,,0.00,Wunderground v.1.15,2013-10-20 22:50:00,
2013-10-20 16:00:00,79.3,15.5,29.66,South,174,3.0,3.0,9,0.00,,,0.00,Wunderground v.1.15,2013-10-20 23:00:00,
2013-10-20 16:10:00,78.9,15.2,29.66,WSW,240,7.0,8.0,9,0.00,,,0.00,Wunderground v.1.15,2013-10-20 23:10:00,
2013-10-20 16:15:00,78.6,15.0,29.66,WNW,290,7.0,8.0,9,0.00,,,0.00,Wunderground v.1.15,2013-10-20 23:15:00,
2013-10-20 16:25:00,79.2,15.5,29.66,West,281,2.0,4.0,9,0.00,,,0.00,Wunderground v.1.15,2013-10-20 23:25:00,
2013-10-20 16:30:00,79.4,15.6,29.66,NW,323,2.0,2.0,9,0.00,,,0.00,Wunderground v.1.15,2013-10-20 23:30:00,
2013-10-20 16:40:00,78.9,12.5,29.66,NW,308,3.0,3.0,8,0.00,,,0.00,Wunderground v.1.15,2013-10-20 23:40:00,
2013-10-20 16:45:00,78.5,12.2,29.66,North,355,3.0,3.0,8,0.00,,,0.00,Wunderground v.1.15,2013-10-20 23:45:00,
2013-10-20 16:55:00,78.2,14.7,29.66,SW,236,3.0,5.0,9,0.00,,,0.00,Wunderground v.1.15,2013-10-20 23:55:00,
2013-10-20 17:05:00,77.5,11.5,29.66,NNW,332,3.0,6.0,8,0.00,,,0.00,Wunderground v.1.15,2013-10-21 00:05:00,
2013-10-20 17:10:00,77.5,11.5,29.65,SSW,208,3.0,3.0,8,0.00,,,0.00,Wunderground v.1.15,2013-10-21 00:10:00,
2013-10-20 17:20:00,76.6,10.8,29.65,NW,304,3.0,3.0,8,0.00,,,0.00,Wunderground v.1.15,2013-10-21 00:20:00,
2013-10-20 17:25:00,76.0,10.4,29.65,NW,326,4.0,4.0,8,0.00,,,0.00,Wunderground v.1.15,2013-10-21 00:25:00,
2013-10-20 17:30:00,75.7,10.2,29.66,NW,323,4.0,4.0,8,0.00,,,0.00,Wunderground v.1.15,2013-10-21 00:30:00,
2013-10-20 17:35:00,75.3,12.5,29.66,WNW,289,3.0,4.0,9,0.00,,,0.00,Wunderground v.1.15,2013-10-21 00:35:00,
2013-10-20 17:45:00,74.9,12.2,29.66,WNW,298,4.0,4.0,9,0.00,,,0.00,Wunderground v.1.15,2013-10-21 00:45:00,
2013-10-20 17:50:00,74.8,12.1,29.66,NNW,330,3.0,4.0,9,0.00,,,0.00,Wunderground v.1.15,2013-10-21 00:50:00,
2013-10-20 17:55:00,74.6,12.0,29.66,NNW,338,3.0,4.0,9,0.00,,,0.00,Wunderground v.1.15,2013-10-21 00:55:00,
2013-10-20 18:00:00,74.3,14.1,29.66,NW,326,4.0,4.0,10,0.00,,,0.00,Wunderground v.1.15,2013-10-21 01:00:00,
2013-10-20 18:05:00,74.2,14.1,29.66,NNW,329,4.0,6.0,10,0.00,,,0.00,Wunderground v.1.15,2013-10-21 01:05:00,
2013-10-20 18:15:00,74.0,13.9,29.67,WNW,296,5.0,6.0,10,0.00,,,0.00,Wunderground v.1.15,2013-10-21 01:15:00,
2013-10-20 18:20:00,73.9,13.8,29.66,NNW,330,6.0,7.0,10,0.00,,,0.00,Wunderground v.1.15,2013-10-21 01:20:00,
2013-10-20 18:25:00,73.7,13.7,29.67,NW,326,6.0,7.0,10,0.00,,,0.00,Wunderground v.1.15,2013-10-21 01:25:00,
2013-10-20 18:35:00,73.4,13.5,29.67,NW,321,6.0,6.0,10,0.00,,,0.00,Wunderground v.1.15,2013-10-21 01:35:00,
2013-10-20 18:40:00,73.3,13.4,29.67,NW,314,6.0,8.0,10,0.00,,,0.00,Wunderground v.1.15,2013-10-21 01:40:00,
2013-10-20 18:45:00,73.2,10.9,29.67,NNW,336,7.0,8.0,9,0.00,,,0.00,Wunderground v.1.15,2013-10-21 01:45:00,
2013-10-20 18:55:00,73.1,10.8,29.67,NW,316,7.0,8.0,9,0.00,,,0.00,Wunderground v.1.15,2013-10-21 01:55:00,
2013-10-20 19:00:00,73.1,13.2,29.67,NW,326,7.0,7.0,10,0.00,,,0.00,Wunderground v.1.15,2013-10-21 02:00:00,
2013-10-20 19:05:00,73.0,13.1,29.67,NW,326,7.0,7.0,10,0.00,,,0.00,Wunderground v.1.15,2013-10-21 02:05:00,
2013-10-20 19:10:00,72.9,13.1,29.68,NW,323,7.0,7.0,10,0.00,,,0.00,Wunderground v.1.15,2013-10-21 02:10:00,
2013-10-20 19:20:00,72.8,13.0,29.68,NNW,340,5.0,6.0,10,0.00,,,0.00,Wunderground v.1.15,2013-10-21 02:20:00,
2013-10-20 19:25:00,72.6,12.8,29.68,WNW,285,5.0,6.0,10,0.00,,,0.00,Wunderground v.1.15,2013-10-21 02:25:00,
2013-10-20 19:30:00,72.5,12.8,29.68,NW,309,5.0,5.0,10,0.00,,,0.00,Wunderground v.1.15,2013-10-21 02:30:00,
2013-10-20 19:35:00,72.4,12.7,29.69,NNW,328,5.0,5.0,10,0.00,,,0.00,Wunderground v.1.15,2013-10-21 02:35:00,
2013-10-20 19:45:00,70.8,13.6,29.69,ENE,73,4.0,5.0,11,0.00,,,0.00,Wunderground v.1.15,2013-10-21 02:45:00,
2013-10-20 19:50:00,69.3,12.5,29.69,ENE,75,3.0,3.0,11,0.00,,,0.00,Wunderground v.1.15,2013-10-21 02:50:00,
2013-10-20 19:55:00,68.5,13.8,29.69,NE,44,2.0,3.0,12,0.00,,,0.00,Wunderground v.1.15,2013-10-21 02:55:00,
2013-10-20 20:00:00,68.5,13.8,29.69,ENE,62,2.0,4.0,12,0.00,,,0.00,Wunderground v.1.15,2013-10-21 03:00:00,
2013-10-20 20:10:00,68.7,14.0,29.70,NNE,13,2.0,2.0,12,0.00,,,0.00,Wunderground v.1.15,2013-10-21 03:10:00,
2013-10-20 20:15:00,69.1,14.3,29.70,ENE,57,1.0,2.0,12,0.00,,,0.00,Wunderground v.1.15,2013-10-21 03:15:00,
2013-10-20 20:20:00,68.9,14.1,29.70,ESE,115,1.0,1.0,12,0.00,,,0.00,Wunderground v.1.15,2013-10-21 03:20:00,
2013-10-20 20:30:00,67.8,13.3,29.70,NE,37,1.0,1.0,12,0.00,,,0.00,Wunderground v.1.15,2013-10-21 03:30:00,
2013-10-20 20:35:00,67.5,14.9,29.71,NE,47,1.0,2.0,13,0.00,,,0.00,Wunderground v.1.15,2013-10-21 03:35:00,
2013-10-20 20:40:00,67.1,14.5,29.71,NE,54,1.0,1.0,13,0.00,,,0.00,Wunderground v.1.15,2013-10-21 03:40:00,
2013-10-20 20:45:00,66.8,14.3,29.71,NE,34,1.0,1.0,13,0.00,,,0.00,Wunderground v.1.15,2013-10-21 03:45:00,
2013-10-20 20:50:00,66.6,15.9,29.71,NNE,32,1.0,3.0,14,0.00,,,0.00,Wunderground v.1.15,2013-10-21 03:50:00,
2013-10-20 20:55:00,67.3,16.4,29.71,NNE,19,2.0,4.0,14,0.00,,,0.00,Wunderground v.1.15,2013-10-21 03:55:00,
2013-10-20 21:00:00,67.7,16.7,29.71,North,3,4.0,6.0,14,0.00,,,0.00,Wunderground v.1.15,2013-10-21 04:00:00,
2013-10-20 21:05:00,68.1,17.0,29.71,NNE,13,5.0,6.0,14,0.00,,,0.00,Wunderground v.1.15,2013-10-21 04:05:00,
2013-10-20 21:10:00,68.5,17.4,29.72,NE,37,5.0,6.0,14,0.00,,,0.00,Wunderground v.1.15,2013-10-21 04:10:00,
2013-10-20 21:15:00,68.7,17.5,29.72,NW,323,4.0,6.0,14,0.00,,,0.00,Wunderground v.1.15,2013-10-21 04:15:00,
2013-10-20 21:20:00,68.1,17.0,29.72,NNW,330,3.0,3.0,14,0.00,,,0.00,Wunderground v.1.15,2013-10-21 04:20:00,
2013-10-20 21:25:00,67.8,16.8,29.72,North,3,3.0,4.0,14,0.00,,,0.00,Wunderground v.1.15,2013-10-21 04:25:00,
2013-10-20 21:30:00,67.8,18.4,29.72,NE,45,4.0,6.0,15,0.00,,,0.00,Wunderground v.1.15,2013-10-21 04:30:00,
2013-10-20 21:40:00,67.6,18.3,29.72,NNE,18,4.0,5.0,15,0.00,,,0.00,Wunderground v.1.15,2013-10-21 04:40:00,
2013-10-20 21:45:00,67.6,18.3,29.73,NNE,24,5.0,5.0,15,0.00,,,0.00,Wunderground v.1.15,2013-10-21 04:45:00,
2013-10-20 21:50:00,67.5,18.2,29.73,NE,46,5.0,5.0,15,0.00,,,0.00,Wunderground v.1.15,2013-10-21 04:50:00,
2013-10-20 21:55:00,66.9,17.7,29.73,North,357,4.0,5.0,15,0.00,,,0.00,Wunderground v.1.15,2013-10-21 04:55:00,
2013-10-20 22:00:00,66.6,17.4,29.73,NE,40,2.0,3.0,15,0.00,,,0.00,Wunderground v.1.15,2013-10-21 05:00:00,
2013-10-20 22:10:00,65.7,16.7,29.73,North,349,2.0,2.0,15,0.00,,,0.00,Wunderground v.1.15,2013-10-21 05:10:00,
2013-10-20 22:15:00,65.7,16.7,29.73,NW,304,1.0,2.0,15,0.00,,,0.00,Wunderground v.1.15,2013-10-21 05:15:00,
2013-10-20 22:20:00,65.6,15.1,29.73,North,359,1.0,2.0,14,0.00,,,0.00,Wunderground v.1.15,2013-10-21 05:20:00,
2013-10-20 22:30:00,65.4,14.9,29.73,NNW,344,2.0,3.0,14,0.00,,,0.00,Wunderground v.1.15,2013-10-21 05:30:00,
2013-10-20 22:35:00,65.9,15.3,29.73,NNW,335,3.0,3.0,14,0.00,,,0.00,Wunderground v.1.15,2013-10-21 05:35:00,
2013-10-20 22:40:00,66.7,15.9,29.73,NNW,347,3.0,5.0,14,0.00,,,0.00,Wunderground v.1.15,2013-10-21 05:40:00,
2013-10-20 22:45:00,67.1,14.5,29.73,NW,323,4.0,5.0,13,0.00,,,0.00,Wunderground v.1.15,2013-10-21 05:45:00,
2013-10-20 22:50:00,67.5,14.9,29.73,NW,323,4.0,5.0,13,0.00,,,0.00,Wunderground v.1.15,2013-10-21 05:50:00,
2013-10-20 22:55:00,67.3,14.7,29.73,NNW,330,5.0,5.0,13,0.00,,,0.00,Wunderground v.1.15,2013-10-21 05:55:00,
2013-10-20 23:00:00,66.5,15.8,29.73,NW,319,5.0,5.0,14,0.00,,,0.00,Wunderground v.1.15,2013-10-21 06:00:00,
2013-10-20 23:10:00,65.4,14.9,29.73,NW,315,4.0,5.0,14,0.00,,,0.00,Wunderground v.1.15,2013-10-21 06:10:00,
2013-10-20 23:20:00,64.6,15.8,29.73,NNW,328,4.0,4.0,15,0.00,,,0.00,Wunderground v.1.15,2013-10-21 06:20:00,
2013-10-20 23:25:00,64.5,15.8,29.73,NW,313,3.0,4.0,15,0.00,,,0.00,Wunderground v.1.15,2013-10-21 06:25:00,
2013-10-20 23:30:00,64.1,15.4,29.73,WNW,298,3.0,5.0,15,0.00,,,0.00,Wunderground v.1.15,2013-10-21 06:30:00,
2013-10-20 23:35:00,64.7,15.9,29.73,NW,306,4.0,5.0,15,0.00,,,0.00,Wunderground v.1.15,2013-10-21 06:35:00,
2013-10-20 23:40:00,64.3,15.6,29.73,NW,304,4.0,4.0,15,0.00,,,0.00,Wunderground v.1.15,2013-10-21 06:40:00,
2013-10-20 23:45:00,63.6,16.5,29.73,NNW,330,3.0,4.0,16,0.00,,,0.00,Wunderground v.1.15,2013-10-21 06:45:00,
2013-10-20 23:55:00,64.4,15.7,29.73,NNW,329,3.0,4.0,15,0.00,,,0.00,Wunderground v.1.15,2013-10-21 06:55:00,